Akron, CO

9:01 AM MST on January 21, 2017 (GMT -0700)
Akron

Weather History for KAKO - May, 2012

Change the Weather History Date:

Wednesday, May 16, 2012

  Actual Average Record
Temperature  
Mean Temperature 68 °F 57 °F  
Max Temperature 88 °F 71 °F 91 °F (1964)
Min Temperature 47 °F 44 °F 30 °F (1945)
Degree Days  
Heating Degree Days 0    
Month to date heating degree days 116  
Cooling Degree Days 3    
Month to date cooling degree days 8  
Growing Degree Days 18 (Base 50)    
Moisture  
Dew Point 27 °F    
Average Humidity 32    
Maximum Humidity 56    
Minimum Humidity 8    
Precipitation  
Precipitation 0.00 in 0.09 in 1.64 in (1962)
Month to date precipitation 0.19 1.38  
Year to date precipitation 2.44 4.64  
Sea Level Pressure  
Sea Level Pressure 29.89 in    
Wind  
Wind Speed 15 mph (South)    
Max Wind Speed 31 mph    
Max Gust Speed 51 mph    
Visibility 10 miles    
Events      
T = Trace of Precipitation, MM = Missing Value Source: NWS Daily Summary

Daily Weather History Graph

Daily Weather History Graph

Search for Another Location

Airport or City:

Trip Planner

Search our weather history database for the weather conditions in past years. The results will help you decide how hot, cold, wet, or windy it might be!

Date:

Astronomy

May. 16, 2012 Rise Set
Actual Time 5:35 AM MDT 8:03 PM MDT
Civil Twilight 5:04 AM MDT 8:34 PM MDT
Nautical Twilight 4:26 AM MDT 9:12 PM MDT
Astronomical Twilight 3:44 AM MDT 9:55 PM MDT
Moon 3:06 AM MDT (5/16) 4:20 PM MDT (5/16)
Length of Visible Light 15h 29m
Length of Day
14h 27m
Waning Crescent, 15% of the Moon is Illuminated
May 16
Waning Crescent
May 20
New
May 28
First Quarter
Jun 4
Full
Jun 11
Last Quarter

Hourly Weather History & Observations

Time (MDT) Temp. Dew Point Humidity Pressure Visibility Wind Dir Wind Speed Gust Speed Precip Events Conditions
12:53 AM 55.0 °F 34.0 °F 45% 30.05 in 10.0 mi SSE 13.8 mph - N/A   Clear
1:53 AM 52.0 °F 34.0 °F 50% 30.03 in 10.0 mi SSE 12.7 mph - N/A   Clear
2:53 AM 52.0 °F 35.1 °F 53% 30.02 in 10.0 mi SSE 12.7 mph - N/A   Clear
3:53 AM 51.1 °F 33.1 °F 50% 30.01 in 10.0 mi SSE 15.0 mph - N/A   Clear
4:53 AM 50.0 °F 32.0 °F 50% 30.00 in 10.0 mi SSE 15.0 mph - N/A   Clear
5:53 AM 48.0 °F 33.1 °F 56% 30.00 in 10.0 mi SSE 13.8 mph - N/A   Clear
6:53 AM 50.0 °F 33.1 °F 52% 30.00 in 10.0 mi SSE 15.0 mph - N/A   Clear
7:53 AM 55.0 °F 34.0 °F 45% 30.00 in 10.0 mi SSE 16.1 mph - N/A   Clear
8:53 AM 63.0 °F 35.1 °F 35% 29.99 in 10.0 mi SE 17.3 mph - N/A   Clear
9:53 AM 70.0 °F 37.0 °F 30% 29.96 in 10.0 mi SSE 12.7 mph - N/A   Clear
10:53 AM 81.0 °F 27.0 °F 14% 29.91 in 10.0 mi South 15.0 mph 31.1 mph N/A   Clear
11:53 AM 84.0 °F 23.0 °F 11% 29.88 in 10.0 mi South 23.0 mph 34.5 mph N/A   Clear
12:53 PM 86.0 °F 21.0 °F 9% 29.84 in 10.0 mi South 28.8 mph 40.3 mph N/A   Clear
1:53 PM 86.0 °F 19.9 °F 9% 29.83 in 10.0 mi South 25.3 mph 36.8 mph N/A   Clear
2:53 PM 86.0 °F 19.9 °F 9% 29.80 in 10.0 mi South 21.9 mph 33.4 mph N/A   Clear
3:53 PM 87.1 °F 19.9 °F 8% 29.77 in 10.0 mi South 21.9 mph 29.9 mph N/A   Clear
4:53 PM 84.9 °F 17.1 °F 8% 29.77 in 10.0 mi South 21.9 mph 25.3 mph N/A   Clear
5:53 PM 82.9 °F 16.0 °F 8% 29.77 in 10.0 mi South 17.3 mph - N/A   Clear
6:53 PM 80.1 °F 17.1 °F 9% 29.77 in 10.0 mi South 11.5 mph - N/A   Clear
7:46 PM 78.8 °F 21.2 °F 12% 29.93 in 10.0 mi West 13.8 mph 50.6 mph N/A   Partly Cloudy
7:53 PM 78.1 °F 21.9 °F 12% 29.79 in 10.0 mi West 17.3 mph 27.6 mph N/A   Scattered Clouds
8:53 PM 71.1 °F 32.0 °F 24% 29.81 in 10.0 mi WNW 4.6 mph - N/A   Partly Cloudy
9:53 PM 73.0 °F 28.9 °F 20% 29.78 in 10.0 mi South 9.2 mph - N/A   Scattered Clouds
10:53 PM 66.9 °F 30.0 °F 25% 29.75 in 10.0 mi South 6.9 mph - N/A   Clear
11:53 PM 60.1 °F 30.0 °F 32% 29.74 in 10.0 mi South 4.6 mph - N/A   Clear